$DATE,$TIME,DM0600B,DM0602B,DM0604B,DM0614B,DM0616B,DM0618B,DM0624B,DM0628B,DM0630B,DM0634B,DM0606B,DM0608B,DM0610B
10/09/94,00:00:00,0,0,0,0,55,30,82,75,51,0,15,16,10
10/09/94,00:05:00,0,0,0,0,55,30,82,75,51,0,17,18,22
10/09/94,00:10:00,0,0,0,0,55,31,83,77,51,0,24,26,16
10/09/94,00:15:00,0,0,0,0,55,31,83,77,51,0,19,18,12
10/09/94,00:20:00,0,0,0,0,56,31,83,78,51,0,15,18,20
10/09/94,00:25:00,0,0,0,0,55,31,83,77,51,0,21,27,18
10/09/94,00:30:00,0,0,0,0,56,31,84,78,51,0,22,19,13
10/09/94,00:35:00,0,0,0,0,56,31,84,78,51,0,17,16,17
10/09/94,00:40:00,0,0,0,0,56,31,84,78,51,0,15,27,20
10/09/94,00:45:00,0,0,0,0,56,31,84,78,43,0,23,21,14
10/09/94,00:50:00,0,0,0,0,56,31,84,78,43,0,21,15,11
10/09/94,00:55:00,0,0,0,0,56,31,83,78,43,0,16,22,22
10/09/94,01:00:00,0,0,0,0,55,31,83,78,43,0,13,22,15
10/09/94,01:05:00,0,0,0,0,56,31,84,78,42,0,18,16,12
10/09/94,01:10:00,0,0,0,0,56,31,84,78,43,0,24,18,19
10/09/94,01:15:00,0,0,0,0,56,31,85,77,42,0,18,24,17
10/09/94,01:20:00,0,0,0,0,56,31,84,78,42,0,15,16,12
10/09/94,01:25:00,0,0,0,0,55,31,83,78,43,0,15,16,13
10/09/94,01:30:00,0,0,0,0,55,31,83,77,42,0,23,26,20
10/09/94,01:35:00,0,0,0,0,55,31,83,77,42,0,19,19,14
10/09/94,01:40:00,0,0,0,0,55,30,82,77,43,0,16,14,11
10/09/94,01:45:00,0,0,1,0,55,29,81,77,42,0,13,21,11
10/09/94,01:50:00,0,0,1,0,54,27,77,77,50,0,21,23,21
10/09/94,01:55:00,0,0,0,0,53,26,76,77,43,0,20,16,15
10/09/94,02:00:00,0,2,9,0,52,25,74,77,43,0,16,16,12
10/09/94,02:05:00,0,0,0,0,51,24,73,77,43,0,16,27,19
10/09/94,02:10:00,0,0,0,0,50,24,71,77,43,0,24,21,18
10/09/94,02:15:00,0,0,0,0,49,24,71,77,43,0,19,15,12
10/09/94,02:20:00,0,0,0,0,47,25,70,78,43,0,15,24,24
10/09/94,02:25:00,0,0,0,0,47,25,70,77,43,0,22,24,17
10/09/94,02:30:00,0,0,0,0,45,26,69,77,43,0,23,16,13
10/09/94,02:35:00,0,0,0,0,45,27,69,75,51,0,17,23,24
10/09/94,02:40:00,0,0,0,0,43,26,67,75,51,0,19,26,16
10/09/94,02:45:00,0,0,0,0,43,24,65,75,51,0,28,17,22
10/09/94,02:50:00,0,0,0,0,42,23,63,75,55,0,20,25,19
10/09/94,02:55:00,0,0,1,0,41,22,61,75,51,0,19,27,20
10/09/94,03:00:00,13,14,17,0,41,20,59,75,53,0,28,18,21
10/09/94,03:05:00,6,13,23,0,41,20,59,75,52,0,22,25,14
10/09/94,03:10:00,11,12,3,0,40,20,58,75,52,0,17,23,23
10/09/94,03:15:00,0,0,7,0,40,20,59,75,53,0,20,17,17
10/09/94,03:20:00,0,0,0,0,39,22,59,75,53,0,28,27,23
10/09/94,03:25:00,0,0,0,0,38,23,59,75,53,0,20,23,19
10/09/94,03:30:00,0,0,0,0,37,23,59,75,53,0,22,22,24
10/09/94,03:35:00,0,0,0,0,36,23,58,75,53,0,29,31,20
10/09/94,03:40:00,0,0,0,0,35,23,56,76,53,0,21,20,23
10/09/94,03:45:00,0,0,0,0,34,22,55,76,53,0,26,27,22
10/09/94,03:50:00,0,0,0,0,33,22,53,76,61,0,28,28,26
10/09/94,03:55:00,0,0,0,0,32,21,52,76,53,0,21,22,20
10/09/94,04:00:00,0,3,0,0,31,21,51,76,53,0,30,33,30
10/09/94,04:05:00,0,0,0,0,30,21,49,76,53,0,24,22,21
10/09/94,04:10:00,0,0,0,0,30,20,49,76,53,0,27,29,29
10/09/94,04:15:00,0,0,0,0,30,20,48,76,53,0,31,31,26
10/09/94,04:20:00,0,0,0,0,29,19,47,76,53,0,23,25,22
10/09/94,04:25:00,0,0,0,0,29,19,46,76,53,0,33,35,32
10/09/94,04:30:00,0,0,0,0,29,18,45,76,53,0,23,24,24
10/09/94,04:35:00,0,0,0,0,28,18,45,79,53,0,30,31,27
10/09/94,04:40:00,0,0,0,0,28,17,44,79,53,0,31,32,31
10/09/94,04:45:00,0,0,0,0,27,17,43,76,53,0,26,25,23
10/09/94,04:50:00,0,0,0,0,26,16,41,76,53,0,36,34,32
10/09/94,04:55:00,0,0,0,0,26,16,40,76,53,0,24,27,29
10/09/94,05:00:00,0,0,0,0,25,15,39,80,53,0,32,30,25
10/09/94,05:05:00,0,0,0,0,24,15,38,80,53,0,32,37,35
10/09/94,05:10:00,0,0,0,0,23,14,36,80,53,0,28,26,26
10/09/94,05:15:00,0,0,0,0,21,14,34,80,52,0,37,33,32
10/09/94,05:20:00,0,0,0,0,20,13,33,80,52,0,26,39,33
10/09/94,05:25:00,0,0,0,0,20,13,32,80,52,0,33,27,25
10/09/94,05:30:00,0,0,0,0,19,12,31,80,51,0,37,34,37
10/09/94,05:35:00,0,0,0,0,19,12,30,80,51,0,27,37,30
10/09/94,05:40:00,0,0,0,0,18,11,29,80,51,0,36,28,30
10/09/94,05:45:00,0,0,0,0,18,11,28,81,51,0,33,38,36
10/09/94,05:50:00,0,0,0,0,17,10,27,81,51,0,29,27,26
10/09/94,05:55:00,0,0,0,0,16,10,26,81,51,0,40,35,37
10/09/94,06:00:00,0,0,0,0,16,9,25,80,51,0,27,40,32
10/09/94,06:05:00,0,0,0,0,15,9,23,81,51,0,35,27,30
10/09/94,06:10:00,0,0,0,0,14,8,23,81,51,0,37,38,38
10/09/94,06:15:00,0,0,0,0,14,8,21,81,51,0,29,29,28
10/09/94,06:20:00,0,0,0,0,13,8,20,81,51,0,39,33,38
10/09/94,06:25:00,0,0,0,0,12,7,19,81,51,0,34,40,33
10/09/94,06:30:00,0,0,0,0,11,7,18,82,52,0,33,40,28
10/09/94,06:35:00,0,0,0,0,11,6,17,81,52,0,41,41,39
10/09/94,06:40:00,0,0,0,0,10,6,16,81,52,0,30,32,30
10/09/94,06:45:00,0,0,0,0,9,5,15,81,52,0,38,38,38
10/09/94,06:50:00,0,0,3,0,9,5,14,88,43,0,36,40,35
10/09/94,06:55:00,0,1,0,0,8,5,13,81,43,0,32,30,28
10/09/94,07:00:00,6,9,10,0,7,4,12,81,43,0,41,40,40
10/09/94,07:05:00,13,17,16,0,7,4,11,81,43,0,26,27,27
10/09/94,07:10:00,6,7,8,0,6,4,10,81,43,0,36,34,32
10/09/94,07:15:00,12,9,8,0,6,4,10,81,75,0,31,36,35
10/09/94,07:20:00,7,11,2,0,5,3,9,81,43,0,30,27,25
10/09/94,07:25:00,3,4,11,0,5,3,8,80,43,0,38,39,34
10/09/94,07:30:00,15,0,6,0,4,3,7,80,43,0,26,26,32
10/09/94,07:35:00,0,0,0,0,4,2,7,80,43,0,37,36,27
10/09/94,07:40:00,0,0,0,0,3,2,6,80,43,0,29,30,36
10/09/94,07:45:00,0,0,0,0,3,2,6,78,35,0,31,31,31
10/09/94,07:50:00,0,0,0,0,2,2,5,77,39,0,35,38,25
10/09/94,07:55:00,4,11,11,12,2,2,4,77,39,0,27,27,38
10/09/94,08:00:00,15,21,24,4,2,1,4,77,38,0,39,38,26
10/09/94,08:05:00,0,1,4,0,1,1,3,77,44,0,25,25,29
10/09/94,08:10:00,0,0,10,0,1,1,3,77,39,0,33,33,36
10/09/94,08:15:00,4,12,6,2,1,1,2,77,38,0,36,39,25
10/09/94,08:20:00,12,8,24,10,1,1,2,77,55,0,26,25,35
10/09/94,08:25:00,21,22,24,13,0,1,2,77,55,0,36,37,30
10/09/94,08:30:00,20,17,25,15,0,0,1,77,55,0,23,23,21
10/09/94,08:35:00,22,20,10,13,0,0,1,77,55,0,31,30,30
10/09/94,08:40:00,9,8,17,18,0,0,1,79,55,0,27,30,26
10/09/94,08:45:00,14,16,17,14,0,0,1,79,55,0,27,26,23
10/09/94,08:50:00,16,17,21,15,0,0,0,79,61,0,34,36,33
10/09/94,08:55:00,9,2,15,6,0,0,0,79,55,0,23,23,25
10/09/94,09:00:00,12,14,7,12,0,0,0,80,55,0,32,32,27
10/09/94,09:05:00,11,19,5,4,0,0,0,79,55,0,27,30,33
10/09/94,09:10:00,15,8,15,4,0,0,0,79,55,0,28,28,23
10/09/94,09:15:00,14,32,35,23,0,0,0,77,55,0,33,35,29
10/09/94,09:20:00,17,12,28,19,0,0,0,77,38,0,21,21,24
10/09/94,09:25:00,5,10,10,0,0,0,0,77,38,0,30,31,20
10/09/94,09:30:00,8,15,16,1,0,0,0,76,38,0,23,22,28
10/09/94,09:35:00,3,13,16,14,0,0,0,77,38,0,23,25,21
10/09/94,09:40:00,0,0,4,0,0,0,0,77,38,0,33,34,27
10/09/94,09:45:00,0,0,0,0,0,0,0,78,39,0,24,24,30
10/09/94,09:50:00,0,0,16,0,0,0,0,78,39,0,33,35,24
10/09/94,09:55:00,38,22,36,26,0,0,0,77,38,0,32,33,33
10/09/94,10:00:00,13,21,11,16,0,0,0,77,38,0,24,24,26
10/09/94,10:05:00,0,12,11,3,0,0,0,78,39,0,35,36,24
10/09/94,10:10:00,8,2,14,0,0,0,0,78,39,0,25,22,33
10/09/94,10:15:00,16,9,9,6,0,0,0,77,39,0,30,31,26
10/09/94,10:20:00,3,12,0,0,0,0,0,77,39,0,33,33,26
10/09/94,10:25:00,13,2,8,0,0,0,0,75,40,0,28,27,34
10/09/94,10:30:00,2,4,4,0,0,0,0,75,49,0,38,39,25
10/09/94,10:35:00,0,0,3,0,0,0,0,78,49,0,26,25,37
10/09/94,10:40:00,0,0,1,0,0,0,0,76,49,0,35,34,32
10/09/94,10:45:00,0,0,2,2,0,0,0,76,49,0,41,41,30
10/09/94,10:50:00,0,0,0,0,0,0,0,76,49,0,28,40,37
10/09/94,10:55:00,1,0,0,0,0,0,0,76,49,0,38,41,26
10/09/94,11:00:00,0,0,0,0,0,0,0,76,49,0,34,33,41
10/09/94,11:05:00,0,2,7,0,0,0,0,76,49,0,32,33,29
10/09/94,11:10:00,0,6,0,0,0,0,0,79,49,0,41,42,35
10/09/94,11:15:00,7,0,9,0,0,0,0,78,49,0,28,26,34
10/09/94,11:20:00,4,0,3,0,0,0,0,78,49,0,38,38,29
10/09/94,11:25:00,0,0,0,0,0,0,0,78,49,0,34,38,40
10/09/94,11:30:00,6,2,10,2,0,0,0,79,49,0,31,28,29
10/09/94,11:35:00,2,3,3,0,0,0,0,82,47,0,42,41,41
10/09/94,11:40:00,0,0,0,0,0,0,0,82,47,0,28,35,32
10/09/94,11:45:00,18,12,6,13,0,0,0,82,47,0,36,32,34
10/09/94,11:50:00,0,0,9,0,0,0,0,82,47,0,42,42,34
10/09/94,11:55:00,12,14,43,7,0,0,0,82,47,0,27,28,28
10/09/94,12:00:00,15,16,7,5,0,0,0,82,47,0,39,35,40
10/09/94,12:05:00,17,16,36,15,0,0,0,82,47,0,29,43,29
10/09/94,12:10:00,0,0,9,0,0,0,0,77,44,0,34,26,35
10/09/94,12:15:00,0,0,0,0,0,0,0,77,44,0,42,37,35
10/09/94,12:20:00,0,0,0,0,0,0,0,77,44,0,36,39,28
10/09/94,12:25:00,0,0,0,1,0,0,0,78,44,0,32,29,39
10/09/94,12:30:00,1,5,8,5,0,0,0,77,44,0,42,41,28
10/09/94,12:35:00,16,0,0,6,0,0,0,77,44,0,28,29,41
10/09/94,12:40:00,0,0,1,0,0,0,0,77,44,0,36,34,31
10/09/94,12:45:00,5,3,15,1,0,0,0,77,44,0,40,42,34
10/09/94,12:50:00,0,0,9,0,0,0,0,77,44,0,28,27,34
10/09/94,12:55:00,4,0,0,0,0,0,0,77,44,0,39,38,27
10/09/94,13:00:00,10,1,0,0,0,0,0,77,44,0,30,33,40
10/09/94,13:05:00,31,27,19,24,0,0,0,76,44,0,34,31,29
10/09/94,13:10:00,0,18,4,7,0,0,0,76,44,0,38,41,28
10/09/94,13:15:00,1,6,33,0,0,0,0,76,44,0,27,25,37
10/09/94,13:20:00,4,8,9,0,0,0,0,77,46,0,39,37,25
10/09/94,13:25:00,13,7,0,1,0,0,0,77,44,0,27,28,37
10/09/94,13:30:00,7,7,7,8,0,0,0,77,44,0,33,31,32
10/09/94,13:35:00,0,1,5,2,0,0,0,77,44,0,39,41,27
10/09/94,13:40:00,0,0,3,0,0,0,0,77,44,0,29,26,39
10/09/94,13:45:00,0,3,8,0,0,0,0,77,44,0,41,38,28
10/09/94,13:50:00,0,0,0,0,0,0,0,77,44,0,31,38,41
10/09/94,13:55:00,0,0,0,0,0,0,0,77,44,0,34,30,32
10/09/94,14:00:00,0,0,0,0,0,0,0,77,44,0,43,41,35
10/09/94,14:05:00,0,0,0,0,0,0,0,77,44,0,29,41,36
10/09/94,14:10:00,0,0,3,0,0,0,0,77,44,0,37,41,30
10/09/94,14:15:00,0,0,0,7,0,0,0,77,44,0,41,41,38
10/09/94,14:20:00,0,1,0,2,0,0,0,77,44,0,29,29,28
10/09/94,14:25:00,10,13,8,15,0,0,0,77,44,0,40,40,41
10/09/94,14:30:00,1,0,8,0,0,0,0,77,36,0,28,27,30
10/09/94,14:35:00,0,0,3,0,0,0,0,77,35,0,37,35,35
10/09/94,14:40:00,0,0,1,0,0,0,0,77,35,0,36,40,35
10/09/94,14:45:00,0,0,3,0,0,0,0,77,36,0,30,27,27
10/09/94,14:50:00,5,5,9,13,0,0,0,77,35,0,41,39,40
10/09/94,14:55:00,22,9,17,0,0,0,0,77,35,0,26,27,27
10/09/94,15:00:00,16,13,20,14,0,0,0,76,35,0,35,33,28
10/09/94,15:05:00,20,21,22,18,0,0,0,76,35,0,27,32,33
10/09/94,15:10:00,13,16,16,14,0,0,0,76,35,0,28,25,20
10/09/94,15:15:00,16,14,21,1,0,0,0,76,36,0,28,34,27
10/09/94,15:20:00,11,11,12,9,0,0,0,76,35,0,25,22,29
10/09/94,15:25:00,20,18,22,19,0,0,0,75,35,0,30,31,19
10/09/94,15:30:00,18,24,33,23,0,0,0,75,35,0,20,20,14
10/09/94,15:35:00,42,34,40,22,0,0,0,74,51,0,16,17,21
10/09/94,15:40:00,8,14,27,12,0,0,0,74,35,0,13,23,14
10/09/94,15:45:00,36,28,35,29,0,0,0,74,35,0,12,16,11
10/09/94,15:50:00,23,31,31,29,0,0,0,74,35,0,19,18,20
10/09/94,15:55:00,23,29,37,28,0,0,0,74,34,0,20,21,15
10/09/94,16:00:00,29,31,27,23,0,0,0,74,35,0,16,15,11
10/09/94,16:05:00,14,15,14,13,0,0,0,74,35,0,13,14,11
10/09/94,16:10:00,0,1,2,4,0,0,0,75,35,0,22,25,27
10/09/94,16:15:00,10,9,10,7,0,0,0,75,35,0,30,29,19
10/09/94,16:20:00,4,12,2,8,0,0,0,76,35,0,22,23,29
10/09/94,16:25:00,5,0,0,0,0,0,0,76,35,0,32,35,24
10/09/94,16:30:00,0,0,2,0,0,0,0,76,35,0,24,22,22
10/09/94,16:35:00,0,6,11,0,0,0,0,76,35,0,30,31,34
10/09/94,16:40:00,0,0,0,0,0,0,0,76,35,0,32,33,24
10/09/94,16:45:00,0,0,0,0,0,0,0,77,35,0,28,27,36
10/09/94,16:50:00,1,0,3,0,0,0,0,76,35,0,39,38,30
10/09/94,16:55:00,0,9,7,0,0,0,0,76,54,0,25,24,25
10/09/94,17:00:00,8,3,5,5,0,0,0,76,35,0,35,33,37
10/09/94,17:05:00,0,0,1,1,0,0,0,76,35,0,28,32,26
10/09/94,17:10:00,0,0,4,0,0,0,0,77,35,0,31,29,35
10/09/94,17:15:00,4,3,7,3,0,0,0,77,35,0,38,40,33
10/09/94,17:20:00,0,7,11,1,0,0,0,76,35,0,26,24,24
10/09/94,17:25:00,4,0,4,0,3,1,5,76,35,0,37,35,38
10/09/94,17:30:00,0,0,0,0,4,1,6,76,36,0,28,34,27
10/09/94,17:35:00,0,0,0,0,4,2,7,77,35,0,33,30,36
10/09/94,17:40:00,0,0,5,0,5,3,8,77,35,0,40,42,33
10/09/94,17:45:00,0,0,3,0,5,3,9,77,35,0,26,25,26
10/09/94,17:50:00,0,0,0,0,6,4,10,77,36,0,38,35,40
10/09/94,17:55:00,0,0,0,0,7,4,11,77,35,0,31,36,27
10/09/94,18:00:00,0,2,7,0,7,4,12,77,35,0,32,29,35
10/09/94,18:05:00,0,0,0,2,8,5,13,77,35,0,38,40,32
10/09/94,18:10:00,0,0,5,0,9,5,14,76,35,0,27,24,25
10/09/94,18:15:00,0,2,10,0,10,6,15,76,35,0,38,35,38
10/09/94,18:20:00,0,0,2,0,10,6,17,76,35,0,27,32,29
10/09/94,18:25:00,0,0,0,0,11,6,18,76,35,0,33,29,32
10/09/94,18:30:00,0,0,0,0,12,7,19,76,35,0,37,41,35
10/09/94,18:35:00,0,0,0,0,13,7,20,76,36,0,27,24,25
10/09/94,18:40:00,0,0,0,0,14,8,21,76,35,0,38,36,38
10/09/94,18:45:00,0,0,0,0,14,8,22,77,35,0,27,32,29
10/09/94,18:50:00,0,0,0,0,15,9,24,77,52,0,33,30,33
10/09/94,18:55:00,0,0,0,0,16,9,25,77,52,0,41,41,35
10/09/94,19:00:00,0,0,0,0,17,9,26,77,52,0,27,26,26
10/09/94,19:05:00,0,0,0,0,18,10,27,77,52,0,36,35,40
10/09/94,19:10:00,0,0,0,0,18,10,28,77,52,0,36,40,27
10/09/94,19:15:00,0,0,0,0,19,11,29,77,52,0,30,27,39
10/09/94,19:20:00,0,0,0,0,20,11,30,76,52,0,41,39,32
10/09/94,19:25:00,0,0,2,0,20,12,31,79,52,0,27,29,29
10/09/94,19:30:00,0,0,10,0,21,12,32,79,52,0,36,33,37
10/09/94,19:35:00,0,0,0,0,21,13,33,79,52,0,37,41,26
10/09/94,19:40:00,0,0,0,0,21,13,34,79,52,0,29,26,41
10/09/94,19:45:00,0,0,0,0,22,14,35,81,52,0,41,38,29
10/09/94,19:50:00,0,0,0,0,22,14,35,81,52,0,27,32,33
10/09/94,19:55:00,0,0,0,0,22,15,36,81,52,0,35,32,35
10/09/94,20:00:00,0,0,0,0,23,15,37,81,52,0,38,42,26
10/09/94,20:05:00,0,0,0,0,23,16,38,82,76,0,29,25,38
10/09/94,20:10:00,0,0,0,0,24,16,39,81,52,0,40,37,27
10/09/94,20:15:00,0,0,0,0,24,16,40,81,52,0,27,31,37
10/09/94,20:20:00,0,0,3,0,24,17,40,81,52,0,34,31,32
10/09/94,20:25:00,0,0,0,0,25,17,41,81,52,0,37,40,27
10/09/94,20:30:00,0,0,0,0,25,17,41,81,52,0,28,26,38
10/09/94,20:35:00,0,0,0,0,24,17,41,81,52,0,39,38,26
10/09/94,20:40:00,0,0,0,0,25,18,42,81,52,0,27,28,35
10/09/94,20:45:00,0,0,0,0,26,18,43,81,52,0,33,31,33
10/09/94,20:50:00,0,0,0,0,25,18,43,81,81,0,35,39,25
10/09/94,20:55:00,0,0,0,0,26,19,44,81,52,0,28,26,39
10/09/94,21:00:00,0,0,0,0,28,19,46,81,52,0,39,38,26
10/09/94,21:05:00,0,0,0,0,28,20,47,81,52,0,26,25,31
10/09/94,21:10:00,0,0,0,0,30,20,48,81,52,0,34,33,35
10/09/94,21:15:00,0,0,0,0,32,21,51,81,52,0,33,35,24
10/09/94,21:20:00,0,0,0,0,32,21,51,81,52,0,29,27,37
10/09/94,21:25:00,0,0,0,0,33,22,53,81,52,0,38,38,28
10/09/94,21:30:00,0,0,0,0,33,22,54,81,52,0,25,24,25
10/09/94,21:35:00,0,0,0,0,33,23,54,81,71,0,36,35,36
10/09/94,21:40:00,0,0,0,0,36,23,57,81,52,0,26,27,25
10/09/94,21:45:00,0,0,0,0,36,23,58,81,52,0,31,30,28
10/09/94,21:50:00,0,0,0,0,38,24,60,80,51,0,31,34,32
10/09/94,21:55:00,0,0,0,0,38,24,61,80,52,0,25,26,24
10/09/94,22:00:00,0,0,0,0,41,25,64,80,51,0,34,36,27
10/09/94,22:05:00,0,0,0,0,42,25,64,80,51,0,22,22,29
10/09/94,22:10:00,0,0,0,0,43,26,66,80,51,0,32,33,21
10/09/94,22:15:00,0,0,0,0,46,26,69,80,51,0,25,25,29
10/09/94,22:20:00,0,0,0,0,46,26,68,80,71,0,26,26,25
10/09/94,22:25:00,0,0,0,0,48,27,72,80,51,0,30,31,22
10/09/94,22:30:00,0,0,0,0,45,27,71,79,51,0,22,22,27
10/09/94,22:35:00,0,0,0,0,49,27,74,79,51,0,30,32,20
10/09/94,22:40:00,0,0,0,0,50,28,75,80,43,0,22,20,27
10/09/94,22:45:00,0,0,0,0,51,28,76,79,43,0,22,26,17
10/09/94,22:50:00,0,0,0,0,51,28,77,79,43,0,28,26,25
10/09/94,22:55:00,0,0,0,0,52,29,78,79,43,0,20,18,16
10/09/94,23:00:00,0,0,0,0,53,29,79,80,43,0,21,26,26
10/09/94,23:05:00,0,0,0,0,53,29,79,79,43,0,26,25,16
10/09/94,23:10:00,0,0,0,0,54,30,80,79,43,0,20,17,18
10/09/94,23:15:00,0,0,0,0,54,30,81,79,43,0,18,25,20
10/09/94,23:20:00,,,,,,,,,,,,,
10/09/94,23:25:00,,,,,,,,,,,,,
10/09/94,23:30:00,0,0,0,0,55,31,83,79,51,0,17,25,17
10/09/94,23:35:00,,,,,,,,,,,,,
10/09/94,23:40:00,,,,,,,,,,,,,
10/09/94,23:45:00,0,0,0,0,56,31,84,79,62,0,18,22,13
10/09/94,23:50:00,,,,,,,,,,,,,
10/09/94,23:55:00,,,,,,,,,,,,,
10/10/94,00:00:00,,,,,,,,,,,,,
